| time (UTC) | temp F | wind direction | speed MPH | gust MPH | rain 1hr in | rain 24hr in | rain mn in | humidity % | barometer mb |
| 20260906012519 | 86 | 30 | 2.0 | 3.0 | 0.00 | 0.00 | 0.00 | 61 | 1012.2 |
| 20260906011520 | 86 | 8 | 1.0 | 2.0 | 0.00 | 0.00 | 0.00 | 61 | 1012.2 |
| 20260906010516 | 87 | 28 | 2.0 | 3.0 | 0.00 | 0.00 | 0.00 | 60 | 1012.0 |
| 20260906005521 | 88 | 10 | 2.0 | 3.0 | 0.00 | 0.00 | 0.00 | 58 | 1011.8 |
| 20260906004520 | 88 | 353 | 3.0 | 5.0 | 0.00 | 0.00 | 0.00 | 57 | 1011.8 |
| 20260906003517 | 89 | 350 | 4.0 | 6.0 | 0.00 | 0.00 | 0.00 | 56 | 1011.8 |
| 20260906002537 | 89 | 345 | 10.0 | 15.0 | 0.00 | 0.00 | 0.00 | 55 | 1011.8 |
| 20260906001539 | 90 | 344 | 11.0 | 15.0 | 0.00 | 0.00 | 0.00 | 55 | 1011.9 |
| 20260906000518 | 91 | 345 | 11.0 | 16.0 | 0.00 | 0.00 | 0.00 | 54 | 1011.9 |
| 20260905235518 | 91 | 344 | 11.0 | 16.0 | 0.00 | 0.00 | 0.00 | 53 | 1011.9 |
| 20260905234518 | 92 | 344 | 11.0 | 16.0 | 0.00 | 0.00 | 0.00 | 52 | 1011.9 |
| 20260905233518 | 93 | 345 | 11.0 | 16.0 | 0.00 | 0.00 | 0.00 | 52 | 1011.9 |
| 20260905232538 | 94 | 346 | 11.0 | 15.0 | 0.00 | 0.00 | 0.00 | 51 | 1011.9 |
| 20260905231518 | 94 | 349 | 11.0 | 15.0 | 0.00 | 0.00 | 0.00 | 50 | 1011.8 |
| 20260905230519 | 95 | 313 | 3.0 | 4.0 | 0.00 | 0.00 | 0.00 | 48 | 1011.6 |
| 20260905225519 | 96 | 314 | 3.0 | 4.0 | 0.00 | 0.00 | 0.00 | 46 | 1011.6 |
| 20260905224520 | 96 | 313 | 3.0 | 4.0 | 0.00 | 0.00 | 0.00 | 44 | 1011.5 |
| 20260905223601 | 97 | 314 | 3.0 | 4.0 | 0.00 | 0.00 | 0.00 | 43 | 1011.6 |
| 20260905222520 | 97 | 313 | 3.0 | 4.0 | 0.00 | 0.00 | 0.00 | 41 | 1011.7 |
| 20260905221520 | 97 | 313 | 3.0 | 4.0 | 0.00 | 0.00 | 0.00 | 42 | 1011.6 |
| 20260905220517 | 96 | 314 | 3.0 | 4.0 | 0.00 | 0.00 | 0.00 | 45 | 1011.6 |
| 20260905215517 | 96 | 314 | 3.0 | 4.0 | 0.00 | 0.00 | 0.00 | 47 | 1011.6 |
| 20260905214520 | 96 | 313 | 3.0 | 4.0 | 0.00 | 0.00 | 0.00 | 48 | 1011.5 |
| 20260905213521 | 96 | 313 | 3.0 | 4.0 | 0.00 | 0.00 | 0.00 | 49 | 1011.6 |
| 20260905212538 | 97 | 313 | 3.0 | 4.0 | 0.00 | 0.00 | 0.00 | 48 | 1011.5 |
| 20260905211517 | 98 | 313 | 3.0 | 4.0 | 0.00 | 0.00 | 0.00 | 42 | 1011.6 |
| 20260905210519 | 98 | 313 | 3.0 | 4.0 | 0.00 | 0.00 | 0.00 | 41 | 1011.5 |
| 20260905205522 | 99 | 313 | 3.0 | 4.0 | 0.00 | 0.00 | 0.00 | 41 | 1011.5 |
| 20260905204518 | 99 | 313 | 3.0 | 4.0 | 0.00 | 0.00 | 0.00 | 41 | 1011.7 |
| 20260905203519 | 100 | 315 | 2.0 | 4.0 | 0.00 | 0.00 | 0.00 | 41 | 1011.6 |
| 20260905202518 | 99 | 313 | 4.0 | 5.0 | 0.00 | 0.00 | 0.00 | 41 | 1011.8 |
| 20260905201518 | 99 | 311 | 3.0 | 5.0 | 0.00 | 0.00 | 0.00 | 40 | 1011.9 |
| 20260905200521 | 99 | 313 | 3.0 | 4.0 | 0.00 | 0.00 | 0.00 | 40 | 1011.9 |
| 20260905195519 | 99 | 313 | 3.0 | 4.0 | 0.00 | 0.00 | 0.00 | 40 | 1012.0 |
| 20260905194521 | 99 | 313 | 3.0 | 4.0 | 0.00 | 0.00 | 0.00 | 41 | 1012.2 |
| 20260905193519 | 99 | 308 | 3.0 | 5.0 | 0.00 | 0.00 | 0.00 | 40 | 1012.1 |
| 20260905192519 | 98 | 307 | 4.0 | 6.0 | 0.00 | 0.00 | 0.00 | 42 | 1012.4 |
| 20260905191537 | 98 | 308 | 4.0 | 5.0 | 0.00 | 0.00 | 0.00 | 40 | 1012.5 |
| 20260905190520 | 98 | 308 | 4.0 | 6.0 | 0.00 | 0.00 | 0.00 | 42 | 1012.6 |
| 20260905185520 | 98 | 311 | 3.0 | 5.0 | 0.00 | 0.00 | 0.00 | 43 | 1012.7 |
| 20260905184517 | 98 | 313 | 2.0 | 4.0 | 0.00 | 0.00 | 0.00 | 44 | 1012.8 |
| 20260905183519 | 98 | 308 | 2.0 | 3.0 | 0.00 | 0.00 | 0.00 | 45 | 1013.0 |
| 20260905182517 | 97 | 308 | 2.0 | 3.0 | 0.00 | 0.00 | 0.00 | 45 | 1013.1 |
| 20260905181521 | 97 | 309 | 2.0 | 3.0 | 0.00 | 0.00 | 0.00 | 47 | 1013.2 |
| 20260905180518 | 97 | 311 | 2.0 | 3.0 | 0.00 | 0.00 | 0.00 | 47 | 1013.2 |
| 20260905175519 | 97 | 312 | 2.0 | 3.0 | 0.00 | 0.00 | 0.00 | 47 | 1013.3 |
| 20260905174518 | 96 | 135 | 2.0 | 5.0 | 0.00 | 0.00 | 0.00 | 48 | 1013.4 |
| 20260905173520 | 96 | 136 | 2.0 | 5.0 | 0.00 | 0.00 | 0.00 | 50 | 1013.5 |
| 20260905172518 | 96 | 137 | 2.0 | 5.0 | 0.00 | 0.00 | 0.00 | 50 | 1013.5 |
| 20260905171519 | 96 | 134 | 2.0 | 6.0 | 0.00 | 0.00 | 0.00 | 50 | 1013.6 |
| 20260905170520 | 95 | 333 | 3.0 | 8.0 | 0.00 | 0.00 | 0.00 | 52 | 1013.8 |
| 20260905165518 | 94 | 356 | 3.0 | 9.0 | 0.00 | 0.00 | 0.00 | 51 | 1014.0 |
| 20260905164520 | 94 | 340 | 5.0 | 10.0 | 0.00 | 0.00 | 0.00 | 53 | 1014.2 |
| 20260905163519 | 93 | 338 | 4.0 | 9.0 | 0.00 | 0.00 | 0.00 | 54 | 1014.2 |
| 20260905162519 | 93 | 335 | 4.0 | 9.0 | 0.00 | 0.00 | 0.00 | 54 | 1014.3 |
| 20260905161519 | 92 | 322 | 3.0 | 8.0 | 0.00 | 0.00 | 0.00 | 57 | 1014.4 |
| 20260905160517 | 92 | 342 | 5.0 | 10.0 | 0.00 | 0.00 | 0.00 | 58 | 1014.5 |
| 20260905155518 | 92 | 315 | 2.0 | 10.0 | 0.00 | 0.00 | 0.00 | 58 | 1014.5 |
| 20260905154520 | 91 | 349 | 4.0 | 8.0 | 0.00 | 0.00 | 0.00 | 58 | 1014.5 |
| 20260905153520 | 90 | 315 | 3.0 | 10.0 | 0.00 | 0.00 | 0.00 | 59 | 1014.5 |
| 20260905152517 | 90 | 356 | 5.0 | 9.0 | 0.00 | 0.00 | 0.00 | 59 | 1014.5 |
| 20260905151539 | 89 | 345 | 2.0 | 5.0 | 0.00 | 0.00 | 0.00 | 62 | 1014.5 |
| 20260905150519 | 88 | 350 | 7.0 | 10.0 | 0.00 | 0.00 | 0.00 | 62 | 1014.5 |
| 20260905145542 | 88 | 342 | 4.0 | 8.0 | 0.00 | 0.00 | 0.00 | 62 | 1014.5 |
| 20260905144520 | 88 | 293 | 2.0 | 5.0 | 0.00 | 0.00 | 0.00 | 64 | 1014.5 |
| 20260905143518 | 88 | 309 | 2.0 | 7.0 | 0.00 | 0.00 | 0.00 | 64 | 1014.5 |
| 20260905142519 | 87 | 341 | 3.0 | 6.0 | 0.00 | 0.00 | 0.00 | 66 | 1014.6 |
| 20260905141518 | 88 | 289 | 1.0 | 3.0 | 0.00 | 0.00 | 0.00 | 68 | 1014.7 |
| 20260905140519 | 87 | 277 | 1.0 | 2.0 | 0.00 | 0.00 | 0.00 | 68 | 1014.7 |
| 20260905135519 | 86 | 237 | 1.0 | 2.0 | 0.00 | 0.00 | 0.00 | 71 | 1014.7 |
| 20260905134519 | 86 | 221 | 1.0 | 3.0 | 0.00 | 0.00 | 0.00 | 70 | 1014.8 |
| 20260905133519 | 85 | 205 | 1.0 | 2.0 | 0.00 | 0.00 | 0.00 | 71 | 1014.7 |
| 20260905132517 | 83 | 230 | 1.0 | 3.0 | 0.00 | 0.00 | 0.00 | 75 | 1014.5 |
| 20260905131520 | 82 | 198 | 0.0 | 2.0 | 0.00 | 0.00 | 0.00 | 81 | 1014.2 |
| 20260905130521 | 80 | 185 | 2.0 | 3.0 | 0.00 | 0.00 | 0.00 | 83 | 1014.2 |
| 20260905125520 | 78 | 183 | 1.0 | 2.0 | 0.00 | 0.00 | 0.00 | 86 | 1014.2 |
| 20260905124517 | 77 | 173 | 1.0 | 2.0 | 0.00 | 0.00 | 0.00 | 88 | 1014.1 |
| 20260905123517 | 76 | 173 | 2.0 | 2.0 | 0.00 | 0.00 | 0.00 | 90 | 1014.0 |
| 20260905122520 | 76 | 167 | 0.0 | 2.0 | 0.00 | 0.00 | 0.00 | 92 | 1014.0 |
| 20260905121521 | 75 | 162 | 1.0 | 2.0 | 0.00 | 0.00 | 0.00 | 93 | 1013.8 |
| 20260905120527 | 75 | 177 | 1.0 | 2.0 | 0.00 | 0.00 | 0.00 | 93 | 1013.7 |
| 20260905115527 | 74 | 203 | 1.0 | 2.0 | 0.00 | 0.00 | 0.00 | 93 | 1013.5 |
| 20260905114548 | 74 | 191 | 1.0 | 2.0 | 0.00 | 0.00 | 0.00 | 93 | 1013.5 |
| 20260905113548 | 74 | 185 | 2.0 | 2.0 | 0.00 | 0.00 | 0.00 | 93 | 1013.6 |
| 20260905112528 | 74 | 182 | 1.0 | 1.0 | 0.00 | 0.00 | 0.00 | 93 | 1013.6 |
| 20260905111529 | 74 | 179 | 1.0 | 2.0 | 0.00 | 0.00 | 0.00 | 93 | 1013.5 |
| 20260905110529 | 74 | 169 | 1.0 | 2.0 | 0.00 | 0.00 | 0.00 | 92 | 1013.4 |
| 20260905105529 | 74 | 167 | 1.0 | 2.0 | 0.00 | 0.00 | 0.00 | 92 | 1013.4 |
| 20260905104529 | 74 | 192 | 0.0 | 0.0 | 0.00 | 0.00 | 0.00 | 91 | 1013.3 |
| 20260905103528 | 75 | 0.0 | 0.0 | 0.00 | 0.00 | 0.00 | 91 | 1013.3 | |
| 20260905102528 | 75 | 98 | 0.0 | 0.0 | 0.00 | 0.00 | 0.00 | 91 | 1013.4 |
| 20260905101530 | 75 | 158 | 0.0 | 1.0 | 0.00 | 0.00 | 0.00 | 91 | 1013.4 |
| 20260905100529 | 74 | 165 | 1.0 | 2.0 | 0.00 | 0.00 | 0.00 | 91 | 1013.4 |
| 20260905095529 | 74 | 177 | 0.0 | 1.0 | 0.00 | 0.00 | 0.00 | 90 | 1013.4 |
| 20260905094529 | 75 | 0.0 | 0.0 | 0.00 | 0.00 | 0.00 | 90 | 1013.3 | |
| 20260905093529 | 75 | 85 | 0.0 | 0.0 | 0.00 | 0.00 | 0.00 | 90 | 1013.3 |
| 20260905092529 | 75 | 157 | 0.0 | 1.0 | 0.00 | 0.00 | 0.00 | 89 | 1013.2 |
| 20260905091530 | 75 | 185 | 0.0 | 1.0 | 0.00 | 0.00 | 0.00 | 89 | 1013.3 |
| 20260905090530 | 75 | 181 | 0.0 | 1.0 | 0.00 | 0.00 | 0.00 | 89 | 1013.4 |
| 20260905085530 | 75 | 0.0 | 0.0 | 0.00 | 0.00 | 0.00 | 88 | 1013.3 | |
| 20260905084530 | 76 | 321 | 0.0 | 1.0 | 0.00 | 0.00 | 0.00 | 88 | 1013.3 |
| 20260905083530 | 76 | 44 | 0.0 | 1.0 | 0.00 | 0.00 | 0.00 | 88 | 1013.4 |
| 20260905082530 | 76 | 45 | 0.0 | 1.0 | 0.00 | 0.00 | 0.00 | 88 | 1013.3 |
| 20260905081531 | 76 | 120 | 0.0 | 1.0 | 0.00 | 0.00 | 0.00 | 88 | 1013.3 |
| 20260905080552 | 76 | 182 | 0.0 | 1.0 | 0.00 | 0.00 | 0.00 | 87 | 1013.4 |
| 20260905075531 | 76 | 170 | 1.0 | 2.0 | 0.00 | 0.00 | 0.00 | 87 | 1013.5 |
| 20260905074531 | 77 | 184 | 1.0 | 2.0 | 0.00 | 0.00 | 0.00 | 86 | 1013.5 |
| 20260905073551 | 77 | 0.0 | 0.0 | 0.00 | 0.00 | 0.00 | 85 | 1013.5 | |
| 20260905072533 | 77 | 29 | 0.0 | 1.0 | 0.00 | 0.00 | 0.00 | 85 | 1013.6 |
| 20260905071533 | 77 | 335 | 1.0 | 2.0 | 0.00 | 0.00 | 0.00 | 85 | 1013.6 |
| 20260905070533 | 77 | 160 | 0.0 | 1.0 | 0.00 | 0.00 | 0.00 | 84 | 1013.7 |
| 20260905065517 | 78 | 163 | 0.0 | 1.0 | 0.00 | 0.00 | 0.00 | 84 | 1013.7 |
| 20260905064518 | 78 | 239 | 0.0 | 2.0 | 0.00 | 0.00 | 0.00 | 83 | 1013.7 |
| 20260905063517 | 78 | 0.0 | 0.0 | 0.00 | 0.00 | 0.00 | 81 | 1013.8 | |
| 20260905062532 | 79 | 33 | 0.0 | 1.0 | 0.00 | 0.00 | 0.00 | 81 | 1013.9 |
| 20260905061518 | 79 | 182 | 1.0 | 2.0 | 0.00 | 0.00 | 0.00 | 80 | 1013.9 |
| 20260905060518 | 80 | 232 | 0.0 | 1.0 | 0.00 | 0.00 | 0.00 | 78 | 1013.9 |
| 20260905055518 | 80 | 0.0 | 0.0 | 0.00 | 0.00 | 0.00 | 78 | 1014.0 | |
| 20260905054520 | 81 | 234 | 0.0 | 1.0 | 0.00 | 0.00 | 0.00 | 77 | 1014.0 |
| 20260905053519 | 81 | 0.0 | 0.0 | 0.00 | 0.00 | 0.00 | 76 | 1014.1 | |
| 20260905052519 | 82 | 258 | 0.0 | 1.0 | 0.00 | 0.00 | 0.00 | 75 | 1014.1 |
| 20260905051516 | 82 | 268 | 0.0 | 1.0 | 0.00 | 0.00 | 0.00 | 73 | 1014.0 |
| 20260905050540 | 83 | 234 | 1.0 | 2.0 | 0.00 | 0.00 | 0.00 | 72 | 1014.0 |
| 20260905045520 | 83 | 218 | 1.0 | 2.0 | 0.00 | 0.00 | 0.00 | 72 | 1014.0 |
| 20260905044539 | 83 | 222 | 1.0 | 2.0 | 0.00 | 0.00 | 0.00 | 71 | 1014.0 |
| 20260905043518 | 84 | 219 | 1.0 | 2.0 | 0.00 | 0.00 | 0.00 | 70 | 1014.0 |
| 20260905042517 | 84 | 227 | 1.0 | 2.0 | 0.00 | 0.00 | 0.00 | 69 | 1014.0 |
| 20260905041521 | 84 | 232 | 1.0 | 3.0 | 0.00 | 0.00 | 0.00 | 69 | 1014.0 |
| 20260905040518 | 85 | 222 | 1.0 | 2.0 | 0.00 | 0.00 | 0.00 | 68 | 1014.1 |
| 20260905035538 | 85 | 215 | 1.0 | 2.0 | 0.00 | 0.00 | 0.00 | 67 | 1014.1 |
| 20260905034518 | 85 | 220 | 1.0 | 2.0 | 0.00 | 0.00 | 0.00 | 66 | 1014.1 |
| 20260905033520 | 84 | 215 | 1.0 | 2.0 | 0.00 | 0.00 | 0.00 | 66 | 1014.1 |
| 20260905032519 | 84 | 236 | 1.0 | 2.0 | 0.00 | 0.00 | 0.00 | 67 | 1014.2 |
| 20260905031520 | 83 | 208 | 1.0 | 2.0 | 0.00 | 0.00 | 0.00 | 68 | 1014.2 |
| 20260905030519 | 82 | 219 | 1.0 | 2.0 | 0.00 | 0.00 | 0.00 | 71 | 1014.1 |
| 20260905025519 | 81 | 198 | 1.0 | 2.0 | 0.00 | 0.00 | 0.00 | 77 | 1014.0 |
| 20260905024538 | 81 | 202 | 1.0 | 2.0 | 0.00 | 0.00 | 0.00 | 79 | 1014.0 |
| 20260905023539 | 81 | 205 | 0.0 | 1.0 | 0.00 | 0.00 | 0.00 | 79 | 1014.0 |
| 20260905022539 | 82 | 212 | 0.0 | 1.0 | 0.00 | 0.00 | 0.00 | 77 | 1013.8 |
| 20260905021520 | 82 | 233 | 0.0 | 1.0 | 0.00 | 0.00 | 0.00 | 76 | 1013.7 |
| 20260905020517 | 83 | 224 | 0.0 | 1.0 | 0.00 | 0.00 | 0.00 | 75 | 1013.7 |
| 20260905015537 | 83 | 178 | 1.0 | 2.0 | 0.00 | 0.00 | 0.00 | 74 | 1013.6 |
| 20260905014520 | 83 | 15 | 1.0 | 2.0 | 0.00 | 0.00 | 0.00 | 74 | 1013.5 |
| 20260905013519 | 84 | 343 | 0.0 | 1.0 | 0.00 | 0.00 | 0.00 | 72 | 1013.4 |